Location: *
(57.8420°S, 159.8600°W)
Time: 13:17:47
(UTC+00:00)

USA 234 - Pass Details

Date: 18 May 2021
Orbit: 1102 x 1105 km, 123.0° (Epoch: 18 April)

Event Time Altitude Azimuth Distance (km) Brightness Sun altitude
Exits shadow 04:52:33 26° 75° (ENE) 2,034 4.1 -18.7°
Maximum altitude 04:54:37 31° 44° (NE) 1,848 4.1 -19.0°
Drops below altitude 10° 05:00:20 10° 343° (NNW) 2,977 5.8 -19.7°
Sets 05:03:10 0° 333° (NNW) 3,929 6.6 -20.1°
